Regional Weather Roundup
Issued by NWS

Home | Current Version | Previous Version | Text Only | Print | Product List | Glossary On
Versions: 1 2 3 4 5 6 7 8 9 10 11 12 13 14 15 16 17 18 19 20 21 22 23 24 25 26 27 28 29 30 31 32 33 34 35 36 37 38 39 40 41 42 43 44 45 46 47 48 49 50
000
ASUS43 KLSX 081310
RWRMO

WEATHER SUMMARY FOR MISSOURI
NATIONAL WEATHER SERVICE SPRINGFIELD MO
700 AM CST MON FEB 08 2016

NOTE: "FAIR" INDICATES FEW OR NO CLOUDS BELOW 12,000 FEET WITH NO
       SIGNIFICANT WEATHER AND/OR OBSTRUCTIONS TO VISIBILITY.
       CURRENT SKY AND/OR WEATHER CONDITIONS ARE NOT AVAILABLE FOR
       CHILLICOTHE AND FARMINGTON.

MOZ001>031-035>038-043-044-053-054-081400-
...NORTHERN AND WESTERN MISSOURI...

CITY           SKY/WX    TMP DP  RH WIND       PRES   REMARKS
KANSAS CTY INT MOCLDY    31  17  56 NW21G44   29.98R WCI  18
KANSAS C DTWN  MOCLDY    33  16  49 NW21G32   30.00R WCI  21
LEE`S SUMMIT   CLOUDY    33  16  49 NW21G39   29.99R WCI  21
ST JOSEPH      CLOUDY    31  19  61 NW18G28   30.01R WCI  19
CHILLICOTHE      N/A     27  17  66 NW12G22   29.96R WCI  17
KIRKSVILLE     LGT SNOW  22  13  68 NW23G32   29.87R WCI   6

$$
MOZ066>068-077>081-088>096-101>105-081400-
...SOUTHWEST MISSOURI...

CITY           SKY/WX    TMP DP  RH WIND       PRES   REMARKS
SPRINGFIELD    MOCLDY    34  16  47 NW22G38   29.96S WCI  22
JOPLIN         CLOUDY    34  17  50 W17G25    30.06S WCI  23

$$
MOZ032>034-039>042-045>050-055>058-069>072-081400-
...CENTRAL MISSOURI...

CITY           SKY/WX    TMP DP  RH WIND       PRES   REMARKS
COLUMBIA       CLOUDY    29  19  66 NW21G38   29.87S WCI  16
JEFFERSON CITY LGT SNOW  30  23  75 NW13      29.91R WCI  20
ROLLA          CLOUDY    28  22  78 NW18G30   29.85R WCI  15
SEDALIA        FLURRIES  30  23  75 NW18G25   29.96R WCI  18
WHITEMAN AFB   CLOUDY    32  23  69 NW22      29.95S WCI  19
WARRENSBURG    CLOUDY    32  21  64 NW17G32   29.98R WCI  21
OSAGE BEACH    CLOUDY    32  18  55 NW7G24    29.92F WCI  26

$$
MOZ051-052-059>065-081400-
...EAST CENTRAL MISSOURI...

CITY           SKY/WX    TMP DP  RH WIND       PRES   REMARKS
ST LOUIS INTL  FLURRIES  33  18  53 W21G31    29.80R WCI  21
SPIRIT OF STL  CLOUDY    32  15  49 NW20G26   29.82R WCI  20
ST CHARLES     CLOUDY    32  20  61 W20G30    29.80R WCI  20

$$
MOZ072>076-082>087-097>100-106>115-081400-
...SOUTH CENTRAL AND SOUTHEAST MISSOURI...

CITY           SKY/WX    TMP DP  RH WIND       PRES   REMARKS
CAPE GIRARDEAU CLOUDY    36  27  69 W12       29.83R WCI  28
FARMINGTON     LGT RAIN  32  25  75 W10G18    29.81S WCI  24
POPLAR BLUFF   CLOUDY    39  22  50 W6        29.85S
WEST PLAINS    CLOUDY    35  17  47 NW13G26   29.89S WCI  26

$$



USA.gov is the U.S. government's official web portal to all federal, state and local government web resources and services.